[[{"header":{"parameterUnit":"m.s-1","parameterCategory":1,"la1":30.2991,"la2":30.254,"lo1":-89.0895,"lo2":-89.0444,"dy":0.0017,"dx":0.0017,"nx":28,"ny":28,"refTime":"2025-06-06T21:00:00:Z","depth":0,"parameterNumber":2,"parameterNumberName":"U-component_of_WINDS"},"data":[0,0,0,0,0,0,0,0,0,0,0,0,0,0,0,0,0,0,0,0,0,0,0,0,0,0,0,0,0,0,0,0,0,0,0,0,0,0,0,0,0,0,0,0,0,0,0,0,0,0,0,0,0,0,0,0,0,0,5.2058,5.206,0,5.2188,5.2189,5.2191,5.2139,5.2136,5.2133,5.213,5.2261,5.2268,5.2274,0,0,0,0,0,0,0,0,0,0,0,0,0,5.1763,5.1769,5.2058,5.206,5.2061,5.2187,5.2189,5.2191,5.2139,5.2136,5.2132,5.2128,5.2259,5.2267,5.2274,0,0,0,0,0,0,0,0,0,0,0,0,0,5.1892,5.1771,5.2058,5.2051,5.2051,5.2187,5.2189,5.2191,5.214,5.2135,5.2131,5.2127,5.2257,5.2266,5.2275,5.2425,0,0,5.2305,5.2309,0,0,0,0,0,0,0,0,5.1885,5.1903,5.205,5.2051,5.2052,5.2142,5.2133,5.227,5.2141,5.2106,5.213,5.2124,5.2225,5.2237,5.2272,5.2432,5.2437,5.2305,5.2311,5.2315,5.2318,0,0,0,0,0,0,0,5.1876,5.1897,5.2109,5.2052,5.2054,5.204,5.2053,5.2159,5.219,5.2109,5.2106,5.2122,5.2225,5.2262,5.2274,5.2439,5.2305,5.2314,5.2319,5.2323,5.2724,5.2729,0,0,0,0,0,0,5.1867,5.189,5.2105,5.2113,5.1956,5.2049,5.2064,5.2118,5.2189,5.2195,5.2125,5.2119,5.2248,5.2263,5.2279,5.2455,5.2315,5.2324,5.233,5.2719,5.2725,5.2731,0,0,0,0,0,0,5.1861,5.1887,5.21,5.2001,5.2027,5.2059,5.212,5.2123,5.216,5.2201,5.2206,5.2158,5.2245,5.2265,5.2388,5.2459,5.2328,5.2337,5.2713,5.2721,5.2728,5.2811,0,0,0,0,0,0,5.1853,5.1885,5.1943,5.2002,5.2032,5.2208,5.2125,5.2129,5.2177,5.2169,5.2233,5.2239,5.2243,5.2374,5.2398,5.247,5.2344,5.2707,5.2717,5.2726,5.2802,5.2821,5.2836,0,0,0,0,0,5.1842,5.1962,5.1946,5.1972,5.2105,5.2213,5.223,5.2233,5.2183,5.224,5.2266,5.2237,5.2448,5.2388,5.2413,5.2489,5.2703,5.2714,5.2725,5.2795,5.2817,5.2836,0,0,0,0,0,0,5.1909,5.1969,5.1953,5.2095,5.2149,5.2204,5.2276,5.2257,5.2326,5.2316,5.2317,5.2331,5.2457,5.2486,5.2417,5.2636,5.2568,5.2585,5.2612,5.2634,5.265,5.2639,5.2352,0,0,0,0,0,5.1941,5.2024,5.2072,5.2193,5.2221,5.2244,5.2291,5.2289,5.2344,5.2367,5.2402,5.2457,5.2535,5.2586,5.2661,5.2807,5.2818,5.2872,5.2889,5.2903,5.2916,5.2992,5.3015,5.2767,5.2767,5.2767,0,0,5.2007,5.205,5.2102,5.2207,5.2249,5.2332,5.2264,5.2356,5.2418,5.2381,5.2498,5.2526,5.2587,5.2721,5.2782,5.2749,5.2988,5.2917,5.2928,5.2934,5.3006,5.3029,5.305,5.2775,5.2773,5.2772,0,0,5.2168,5.2211,5.2314,5.2357,5.2421,5.2435,5.246,5.2518,5.2535,5.2653,5.2625,5.2699,5.2835,5.2878,5.2918,5.3095,5.3069,5.312,5.3207,5.3281,5.33,5.3317,5.3376,5.3398,5.3134,5.3134,5.3134,0,5.2241,5.2367,5.237,5.2464,5.2509,5.248,5.2583,5.2625,5.271,5.2742,5.2704,5.2872,5.2911,5.3053,5.3096,5.3131,5.3157,5.3111,5.3297,5.3315,5.3331,5.3387,5.341,5.3139,5.3139,5.3138,5.3138,0,5.2452,5.254,5.2616,5.2697,5.2752,5.2851,5.2867,5.2922,5.2915,5.2933,5.3052,5.3098,5.318,5.3214,5.3209,5.3355,5.3332,5.3297,5.3227,5.336,5.3412,5.3434,5.3147,5.3145,5.3144,5.3142,0,0,5.2658,5.2739,5.2766,5.2802,5.287,5.2937,5.3033,5.3113,5.3158,5.3219,5.3297,5.3412,5.3379,5.3424,5.3424,5.3489,5.362,5.3444,5.3446,5.3472,5.3779,5.3803,5.3828,5.3605,5.361,5.3613,5.3773,0,5.2821,5.299,5.2994,5.3148,5.3227,5.32,5.3284,5.3334,5.3353,5.3423,5.3444,5.3524,5.3476,5.3503,5.3567,5.3591,5.3681,5.358,5.3675,5.3679,5.3657,5.3856,5.3882,5.403,5.3794,5.3797,5.38,0,5.3034,5.3099,5.326,5.3314,5.3347,5.3423,5.3494,5.3562,5.3617,5.3627,5.3677,5.3666,5.3762,5.3693,5.3824,5.3755,5.3794,5.3812,5.3818,5.3824,5.3744,5.3863,5.4078,5.4099,5.3833,5.3831,5.3828,0,5.3162,5.3291,5.3403,5.3435,5.3502,5.3554,5.3584,5.3635,5.3682,5.3745,5.3775,5.3849,5.3889,5.3946,5.3954,5.3903,5.4084,5.4016,5.4092,5.4092,5.4128,5.4125,5.4348,5.4161,5.4161,5.416,5.416,0,5.3341,5.344,5.3461,5.3529,5.3639,5.3643,5.3751,5.3777,5.3822,5.3894,5.3877,5.3944,5.3953,5.4023,5.4031,5.4135,5.4155,5.4163,5.4163,5.4162,5.4161,5.4185,5.4173,5.4166,5.4165,5.4164,5.4163,0,5.3501,5.352,5.364,5.3693,5.3709,5.3786,5.3831,5.3896,5.3914,5.4005,5.4026,5.4054,5.4135,5.415,5.4246,5.4251,5.4375,5.4367,5.4355,5.4353,5.4426,5.4417,5.467,5.4701,5.4498,5.45,5.4501,0,5.3612,5.3687,5.3748,5.3795,5.3828,5.3904,5.3951,5.3959,5.4008,5.4076,5.4132,5.4211,5.4274,5.4404,5.4432,5.4504,5.4495,5.4579,5.4506,5.4501,5.4491,5.4484,5.449,5.4591,5.4593,5.4595,5.4597,0,5.3806,5.3811,5.388,5.3952,5.4009,5.4066,5.412,5.416,5.4174,5.4231,5.4313,5.4362,5.4459,5.4536,5.4608,5.4637,5.4618,5.462,5.464,5.4638,5.4626,5.4629,5.4389,5.4613,5.4611,5.461,5.4609,5.4609,5.3942,5.4006,5.4058,5.4135,5.4176,5.4227,5.4289,5.4315,5.4384,5.4462,5.4463,5.4552,5.4603,5.4698,5.4732,5.4801,5.4774,5.4805,5.4812,5.4818,5.4822,5.4619,5.4814,5.4814,5.4814,5.4813,5.4813,0,5.413,5.4162,5.4233,5.4309,5.4369,5.4348,5.4406,5.4457,5.4535,5.4585,5.4647,5.474,5.4815,5.4849,5.4922,5.497,5.4963,5.4989,5.4983,5.4989,5.4845,5.4817,5.4993,5.4993,5.4993,5.4993,5.4993,5.4993,5.4235,5.4341,5.4352,5.4478,5.4509,5.4596,5.463,5.4676,5.4715,5.482,5.4882,5.4904,5.4946,5.5022,5.5089,5.5097,5.5122,5.5151,5.5155,5.5018,5.5,5.4982,5.4956,5.5158,5.5158,5.5292,5.5294,5.5295]},{"header":{"parameterUnit":"m.s-1","parameterCategory":1,"la1":30.2991,"la2":30.254,"lo1":-89.0895,"lo2":-89.0444,"dy":0.0017,"dx":0.0017,"nx":28,"ny":28,"refTime":"2025-06-06T21:00:00:Z","depth":0,"parameterNumber":3,"parameterNumberName":"V-component_of_WINDS"},"data":[0,0,0,0,0,0,0,0,0,0,0,0,0,0,0,0,0,0,0,0,0,0,0,0,0,0,0,0,0,0,0,0,0,0,0,0,0,0,0,0,0,0,0,0,0,0,0,0,0,0,0,0,0,0,0,0,0,0,3.4784,3.4785,0,3.4924,3.4926,3.4927,3.4922,3.492,3.4918,3.4916,3.5058,3.5063,3.5069,0,0,0,0,0,0,0,0,0,0,0,0,0,3.4507,3.4512,3.4783,3.4785,3.4787,3.4924,3.4926,3.4928,3.4922,3.492,3.4918,3.4915,3.5056,3.5062,3.5069,0,0,0,0,0,0,0,0,0,0,0,0,0,3.4635,3.4514,3.4783,3.4801,3.4804,3.4923,3.4926,3.4928,3.4923,3.492,3.4917,3.4914,3.5054,3.5062,3.507,3.518,0,0,3.5096,3.5099,0,0,0,0,0,0,0,0,3.4628,3.4645,3.4797,3.48,3.4804,3.4903,3.488,3.5013,3.4924,3.4878,3.4916,3.4913,3.5008,3.502,3.5053,3.5187,3.5193,3.5096,3.5101,3.5105,3.5107,0,0,0,0,0,0,0,3.4619,3.4639,3.4839,3.4799,3.4803,3.4801,3.4816,3.4905,3.4958,3.4881,3.4881,3.4898,3.501,3.5045,3.5056,3.5195,3.5096,3.5104,3.5109,3.5112,3.5424,3.5427,0,0,0,0,0,0,3.4607,3.4632,3.4835,3.4843,3.4707,3.4808,3.4825,3.4874,3.4957,3.4966,3.4901,3.4898,3.5032,3.5046,3.5061,3.5194,3.5105,3.5113,3.5118,3.5421,3.5424,3.5428,0,0,0,0,0,0,3.4601,3.4625,3.4829,3.4738,3.4763,3.4816,3.4871,3.4878,3.4913,3.4971,3.498,3.4927,3.503,3.5049,3.515,3.5199,3.5117,3.5124,3.5417,3.5422,3.5426,3.5463,0,0,0,0,0,0,3.4593,3.4623,3.4666,3.4739,3.4768,3.4917,3.4874,3.4883,3.4928,3.4925,3.4999,3.5008,3.5029,3.5138,3.5159,3.5209,3.5131,3.5413,3.5419,3.5425,3.5457,3.5468,3.5477,0,0,0,0,0,3.4583,3.4671,3.4669,3.4693,3.4824,3.492,3.4937,3.4961,3.4932,3.4976,3.5012,3.5005,3.519,3.5148,3.5172,3.5225,3.541,3.5417,3.5424,3.5453,3.5466,3.5477,0,0,0,0,0,0,3.4603,3.4681,3.4679,3.4793,3.485,3.4919,3.4975,3.4974,3.504,3.5035,3.506,3.5077,3.5178,3.5212,3.5163,3.5335,3.5296,3.5308,3.531,3.5323,3.5333,3.5322,3.5138,0,0,0,0,0,3.462,3.4693,3.4757,3.4851,3.488,3.4922,3.4965,3.4978,3.5038,3.5062,3.5106,3.5163,3.5234,3.528,3.5349,3.5462,3.5477,3.551,3.552,3.5528,3.5538,3.5599,3.5614,3.5452,3.5452,3.5452,0,0,3.4657,3.4709,3.4753,3.4856,3.4902,3.4975,3.4943,3.5022,3.5076,3.5074,3.5172,3.5206,3.5271,3.5378,3.5428,3.541,3.5586,3.5537,3.5543,3.555,3.5608,3.5623,3.5637,3.5457,3.5456,3.5455,0,0,3.4763,3.481,3.4893,3.4939,3.5008,3.5036,3.5055,3.5124,3.5147,3.5246,3.5245,3.5309,3.5431,3.5477,3.5516,3.5636,3.5632,3.5658,3.571,3.5769,3.5782,3.5793,3.5835,3.585,3.5668,3.5668,3.5668,0,3.48,3.4912,3.4935,3.5015,3.5059,3.506,3.5144,3.5187,3.5275,3.5305,3.5284,3.5435,3.5479,3.5597,3.5626,3.5658,3.568,3.565,3.5778,3.579,3.5801,3.5841,3.5857,3.5671,3.567,3.567,3.567,0,3.4953,3.503,3.5089,3.5174,3.5225,3.5306,3.5341,3.5389,3.5397,3.5426,3.5525,3.5578,3.5656,3.5685,3.5694,3.5803,3.5789,3.5773,3.5734,3.5819,3.5857,3.5872,3.5674,3.5673,3.5673,3.5672,0,0,3.5077,3.5173,3.5194,3.5232,3.5307,3.5367,3.5446,3.5524,3.5564,3.5624,3.5691,3.5792,3.5777,3.5822,3.5835,3.5887,3.5977,3.5864,3.5866,3.5882,3.6099,3.611,3.6128,3.5974,3.5977,3.5979,3.6093,0,3.5189,3.5333,3.5355,3.5481,3.5551,3.5552,3.5621,3.5674,3.5703,3.5765,3.5796,3.5868,3.5843,3.5869,3.592,3.5955,3.602,3.5947,3.6035,3.6038,3.6019,3.6148,3.6162,3.6266,3.6108,3.611,3.6112,0,3.534,3.5404,3.5537,3.5601,3.5632,3.5694,3.5765,3.5826,3.5885,3.5902,3.5951,3.5957,3.6038,3.5995,3.6107,3.6056,3.6093,3.6115,3.612,3.6129,3.6081,3.616,3.63,3.6316,3.6136,3.6134,3.6133,0,3.5416,3.5535,3.563,3.5662,3.574,3.5783,3.5817,3.5873,3.5918,3.5979,3.6008,3.6078,3.6116,3.617,3.6194,3.6161,3.6303,3.6263,3.6319,3.6318,3.6349,3.6347,3.6496,3.6373,3.6373,3.6372,3.6372,0,3.5539,3.562,3.5664,3.5722,3.5812,3.5836,3.5924,3.5956,3.6006,3.6069,3.6074,3.6132,3.6162,3.6224,3.6244,3.6332,3.6349,3.6364,3.6368,3.6364,3.6362,3.6389,3.6382,3.6377,3.6376,3.6375,3.6374,0,3.564,3.5673,3.5775,3.584,3.5858,3.5921,3.5976,3.6031,3.6058,3.6138,3.6158,3.6201,3.6275,3.6304,3.6395,3.6407,3.6509,3.6507,3.6489,3.649,3.6544,3.6538,3.6716,3.674,3.6601,3.6602,3.6603,0,3.5716,3.5779,3.585,3.5892,3.5928,3.5997,3.6042,3.6067,3.6114,3.6184,3.6231,3.6304,3.6365,3.6482,3.6521,3.6589,3.6589,3.6647,3.66,3.6592,3.6589,3.6585,3.6591,3.6655,3.6657,3.6658,3.6659,0,3.5849,3.5861,3.5927,3.5997,3.6051,3.6108,3.6163,3.6197,3.623,3.6282,3.6357,3.6404,3.6496,3.6569,3.6639,3.6672,3.6671,3.6673,3.669,3.6686,3.6672,3.668,3.6513,3.6669,3.6668,3.6667,3.6667,3.6666,3.5939,3.5994,3.6052,3.6124,3.6168,3.6219,3.6274,3.6308,3.6372,3.6449,3.6459,3.654,3.6595,3.6689,3.6725,3.6787,3.6772,3.6796,3.6803,3.6808,3.6811,3.6662,3.68,3.68,3.68,3.68,3.6799,0,3.6071,3.6108,3.6174,3.6251,3.6307,3.6301,3.6361,3.6408,3.6479,3.6531,3.659,3.6676,3.6746,3.6789,3.6859,3.69,3.6901,3.6918,3.6915,3.6923,3.6821,3.68,3.6916,3.6916,3.6916,3.6916,3.6916,3.6916,3.6147,3.6238,3.6258,3.637,3.6406,3.6486,3.6521,3.6567,3.6608,3.6705,3.6763,3.6791,3.6838,3.6911,3.6974,3.6985,3.701,3.7028,3.7037,3.6942,3.693,3.6918,3.6898,3.7033,3.7034,3.7134,3.7134,3.7135]}]]